Location: Pandora
(40.9481°N, 83.9611°W)
Time: 22:31:01
(UTC-04:00)

Envisat - Pass Details

Date: 25 September 2021
Orbit: 764 x 766 km, 98.2° (Epoch: 15 October)

Event Time Altitude Azimuth Distance (km) Brightness Sun altitude
Rises 06:38:23 0° 14° (NNE) 3,238 6.5 -9.9°
Reaches altitude 10° 06:40:43 10° 17° (NNE) 2,308 5.8 -9.5°
Maximum altitude 06:45:48 73° 102° (ESE) 802 3.3 -8.5°
Drops below altitude 10° 06:50:50 10° 187° (S) 2,291 5.4 -7.6°
Sets 06:53:08 0° 189° (S) 3,213 6.1 -7.2°
